Tracking 20232 objects as of 21-Jan-2020
HD Live streaming from Space Station
objects crossing your sky now

SEEKER

Track SEEKER now!
10-day predictions


NORAD ID: 44533
Int'l Code: 2019-022K
Perigee: 473.2 km
Apogee: 490.2 km
Inclination: 51.6 °
Period: 94.1 minutes
Semi major axis: 6852 km
RCS: Unknown
Launch date: September 16, 2019
Source: United States (US)
Launch site: ()
aabbcc
Your satellite tracking list
Your tracking list is empty




NASA's NSSDC Master Catalog

Two Line Element Set (TLE):
1 44533U 19022K   20021.25030071 +.00000678 +00000-0 +34979-4 0  9993
2 44533 051.6454 024.9127 0012422 129.0517 231.1571 15.30414889019448
Source of the keplerian elements: AFSPC